#timestamp,LO_Frequency,Hit,StdDev 
1520305215.3,286046994.1,N
1520305235.2,286046994.8,N
1520305255.0,286046992.5,Y
1520305255.9,286046992.5,P
1520305275.8,286046995.8,N
1520305295.6,286046997.7,N
1520305315.4,286046995.2,N
1520305335.3,286046995.0,N
1520305355.1,286046999.1,N
1520305375.8,286046996.8,N
1520305395.7,286046996.6,N
1520305415.5,286046999.6,N
1520305435.4,286046996.8,N
1520305455.2,286046999.6,N
1520305475.0,286046996.7,N
1520305475.9,286046996.7,N
1520305495.8,286046995.0,N
1520305515.6,286046997.6,N
1520305535.4,286046999.5,N
1520305555.3,286046997.5,N
1520305575.1,286046994.9,N
1520305595.9,286046995.4,N
1520305615.7,286046994.2,Y
1520305635.5,286046997.1,P
1520305655.4,286046997.2,P
1520305675.2,286046997.2,P
1520305695.0,286046998.8,Y
1520305696.0,286046998.8,P
1520305715.8,286047000.0,N
1520305735.6,286047000.1,N
1520305755.5,286047000.1,N
1520305775.3,286047001.6,N
1520305795.1,286047000.1,N
1520305815.9,286047002.0,N
1520305835.7,286047000.2,N
1520305855.6,286047001.1,N
1520305875.4,286046997.0,N
1520305895.2,286046999.0,N
1520305915.1,286046998.5,N
1520305916.0,286046998.5,N
1520305935.8,286047002.5,N
1520305955.6,286047003.9,N
1520305975.5,286047006.0,Y
1520305995.3,286047001.3,P
1520306015.2,286047001.8,N
1520306035.9,286047002.8,P
1520306055.7,286047000.2,N
1520306075.6,286046999.7,N
1520306095.4,286047000.3,N
1520306115.2,286046998.2,N
1520306135.1,286047004.4,Y
1520306136.0,286047004.4,P
1520306155.8,286047000.4,N
1520306175.7,286047000.9,N
1520306195.5,286047002.2,N
1520306215.3,286047006.0,Y
1520306235.2,286047001.4,P
1520306255.0,286047003.8,P
1520306255.9,286047003.8,P
1520306275.8,286047003.3,N
1520306295.6,286047001.7,N
1520306315.4,286047004.1,Y
1520306335.3,286047000.3,P
1520306355.1,286047000.2,N
1520306375.8,286047000.0,N
1520306395.7,286047000.9,N
1520306415.5,286046996.9,Y
1520306435.4,286046995.4,P
1520306455.2,286046993.5,N
1520306475.0,286046994.0,N
1520306475.9,286046994.0,N
1520306495.8,286046993.7,N
1520306515.6,286046993.9,N
1520306535.4,286046993.9,N
1520306555.3,286046992.4,Y
1520306575.1,286046997.5,P
1520306595.9,286046996.6,N
1520306615.7,286046996.5,P
1520306635.5,286046997.8,N
1520306655.4,286046995.2,Y
1520306675.2,286046998.9,P
1520306695.1,286046998.2,N
1520306696.0,286046998.2,N
1520306715.8,286047002.3,N
1520306735.6,286047004.4,N
1520306755.5,286047003.7,N
1520306775.3,286047002.2,N
1520306795.1,286047000.5,N
1520306815.9,286046998.8,N
1520306835.7,286046998.6,N
1520306855.6,286046998.3,N
1520306875.4,286047000.2,N
1520306895.2,286046998.9,N
1520306915.1,286046998.7,N
1520306916.0,286046998.7,N
1520306935.8,286047000.6,N
1520306955.6,286047002.3,N
1520306975.5,286047002.4,N
1520306995.3,286047002.2,N
1520307015.2,286047000.0,N
1520307035.9,286046999.9,N
1520307055.7,286047000.5,N
1520307075.6,286046998.6,N
1520307095.4,286047001.7,N
1520307115.2,286047001.6,N
1520307135.1,286047001.7,N
1520307136.0,286047001.7,N
1520307155.8,286047001.7,N
1520307175.7,286047003.5,N
1520307195.5,286047004.4,N
1520307215.3,286047003.8,N
1520307235.2,286047004.0,N
1520307255.0,286047004.3,N
1520307255.9,286047004.3,N
1520307275.8,286046999.7,N
1520307295.6,286046999.8,N
1520307315.4,286047000.2,N
1520307335.3,286047000.4,N
1520307355.1,286047001.3,N
1520307375.8,286047004.2,N
1520307425.7,286047004.0,E
1520307435.6,286047000.0,N
1520307455.5,286047001.2,P
1520307475.3,286046999.1,N
1520307495.1,286046999.6,N
1520307515.9,286046997.3,Y
1520307535.7,286046995.9,P
1520307555.6,286046995.2,N
1520307575.4,286046995.7,N
1520307595.2,286046994.1,Y
1520307615.1,286046997.9,P
1520307616.0,286046997.9,P
1520307635.8,286046995.8,P
1520307655.7,286046997.2,Y
1520307675.5,286046999.7,P
1520307695.3,286046999.8,N
1520307715.2,286046998.5,N
1520307735.0,286046998.9,N
1520307735.9,286046998.9,N
1520307755.7,286046998.7,N
1520307775.6,286047001.0,N
1520307795.4,286047000.4,N
1520307815.3,286047001.0,N
1520307835.1,286046998.2,N
1520307836.0,286046998.2,N
1520307855.8,286046998.9,N
1520307875.7,286046997.2,N
1520307895.5,286046995.3,Y
1520307915.3,286046999.3,P
1520307935.2,286046999.0,P
1520307955.0,286046999.4,P
1520307955.9,286046999.4,Y
1520307975.8,286046999.0,P
1520307995.6,286046999.5,P
1520308015.4,286046997.0,P
1520308035.3,286047000.8,N
1520308055.1,286046998.8,N
1520308075.8,286046999.0,N
1520308095.7,286047001.2,N
1520308115.5,286046998.9,N
1520308135.4,286047001.1,N
1520308155.2,286047000.6,N
1520308175.0,286046998.8,N
1520308175.9,286046998.8,N
1520308195.8,286047000.4,N
1520308215.6,286046998.1,N
1520308235.4,286046998.1,N
1520308255.3,286047000.8,N
1520308275.1,286046998.2,N
1520308295.9,286046999.6,N
1520308315.7,286047000.4,N
1520308335.5,286046999.7,N
1520308355.4,286046998.5,N
1520308375.2,286046998.7,N
1520308395.0,286047001.0,N
1520308395.9,286047001.0,N
1520308415.8,286046999.9,N
1520308435.6,286046999.8,N
1520308455.5,286047000.0,N
1520308475.3,286047000.7,N
1520308495.1,286047002.3,N
1520308515.9,286047001.1,N
1520308535.7,286046998.6,N
1520308555.5,286046996.5,N
1520308575.4,286047000.9,N
1520308595.2,286046998.1,N
1520308615.0,286046998.1,N
1520308616.0,286046998.1,N
1520308635.8,286047000.8,N
1520308655.6,286046998.6,N
1520308675.5,286046998.8,N
1520308695.3,286047000.3,N
1520308715.1,286046999.9,N
1520308735.9,286047000.3,N
1520308755.7,286047000.5,N
1520308775.6,286047000.9,N
1520308795.4,286047000.4,N
